Location: Hilton Head Island
(32.2163°N, 80.7526°W)
Time: 01:23:30
(UTC-05:00)

Tiros 1 despin weight - Pass Details

Date: 17 February 2026
Orbit: 556 x 593 km, 48.2° (Epoch: 5 March)

Event Time Altitude Azimuth Distance (km) Brightness Sun altitude
Rises 13:27:54 0° 198° (SSW) 2,745 ? 44.3°
Reaches altitude 10° 13:30:32 10° 183° (S) 1,845 ? 44.2°
Maximum altitude 13:33:48 22° 131° (SE) 1,241 ? 44.0°
Drops below altitude 10° 13:37:04 10° 80° (E) 1,839 ? 43.7°
Sets 13:39:41 0° 65° (ENE) 2,733 ? 43.5°
